Location: Columbus
(29.5618°N, 96.6770°W)
Time: 04:57:15
(UTC-05:00)

Iridium 59 - Visible Passes

Search period start: 26 April 2017 00:00
Search period end: 06 May 2017 00:00
Orbit: 776 x 779 km, 86.4° (Epoch: 24 April)

Date Brightness Start Highest point End Pass type
(mag) Time Alt. Az. Time Alt. Az. Time Alt. Az.
26 Apr 7.9 20:29:25 10° NW 20:33:07 20° W 20:36:49 10° SW visible
29 Apr 8.3 20:30:46 10° NW 20:33:03 13° W 20:35:19 10° WSW visible
03 May 8.1 05:59:50 10° ESE 06:02:50 16° E 06:05:51 10° NE visible
